Radiation Dose at Monitoring Post of Fukushima Daini Nuclear Power Station
Date,Time,MP-1(microSv/h),MP-2(microSv/h),MP-3(microSv/h),MP-4(microSv/h),MP-5(microSv/h),MP-6(microSv/h),MP-7(microSv/h),Wind Direction,Wind Velocity(m/s),Rain
2018/01/18,00:00,0.334,0.210,0.332,0.315,0.309,0.174,0.109,-,CALM,Yes
2018/01/18,00:10,0.336,0.212,0.334,0.316,0.310,0.175,0.111,-,CALM,Yes
2018/01/18,00:20,0.338,0.215,0.336,0.317,0.312,0.178,0.112,-,CALM,Yes
2018/01/18,00:30,0.340,0.216,0.337,0.317,0.314,0.178,0.113,-,CALM,Yes
2018/01/18,00:40,0.340,0.215,0.336,0.317,0.312,0.177,0.112,-,CALM,No
2018/01/18,00:50,0.338,0.214,0.335,0.317,0.311,0.175,0.111,-,CALM,No
2018/01/18,01:00,0.337,0.211,0.335,0.315,0.309,0.173,0.108,-,CALM,No
2018/01/18,01:10,0.335,0.209,0.333,0.313,0.308,0.171,0.107,-,CALM,No
2018/01/18,01:20,0.334,0.208,0.333,0.313,0.306,0.170,0.106,-,CALM,No
2018/01/18,01:30,0.334,0.208,0.332,0.312,0.305,0.168,0.104,-,CALM,No
2018/01/18,01:40,0.331,0.205,0.332,0.312,0.304,0.168,0.103,north-northwest,13.4,No
2018/01/18,01:50,0.331,0.205,0.331,0.311,0.304,0.167,0.103,north-northwest,11.2,No
2018/01/18,02:00,0.332,0.206,0.331,0.311,0.305,0.167,0.103,north-northwest,13.1,Yes
2018/01/18,02:10,0.332,0.204,0.331,0.312,0.304,0.166,0.103,north-northwest,12.3,Yes
2018/01/18,02:20,0.332,0.205,0.332,0.313,0.304,0.167,0.103,north-northwest,10.7,Yes
2018/01/18,02:30,0.332,0.204,0.332,0.311,0.303,0.165,0.102,north-northwest,11.1,No
2018/01/18,02:40,0.331,0.204,0.331,0.311,0.302,0.166,0.102,north-northwest,11.5,No
2018/01/18,02:50,0.331,0.204,0.331,0.310,0.302,0.166,0.102,north-northwest,12.6,No
2018/01/18,03:00,0.330,0.202,0.331,0.310,0.302,0.165,0.101,north-northwest,12.9,No
2018/01/18,03:10,0.331,0.202,0.330,0.311,0.302,0.164,0.101,north-northwest,13.1,No
2018/01/18,03:20,0.330,0.202,0.329,0.309,0.302,0.164,0.100,north-northwest,12.0,No
2018/01/18,03:30,0.329,0.201,0.329,0.308,0.302,0.165,0.100,north-northwest,11.5,No
2018/01/18,03:40,0.329,0.201,0.330,0.310,0.300,0.163,0.101,north-northwest,11.5,No
2018/01/18,03:50,0.330,0.201,0.330,0.309,0.300,0.164,0.099,north-northwest,12.6,No
2018/01/18,04:00,0.331,0.201,0.330,0.309,0.301,0.163,0.100,north-northwest,11.5,No
2018/01/18,04:10,0.329,0.201,0.330,0.310,0.301,0.163,0.100,north-northwest,8.9,No
2018/01/18,04:20,0.330,0.201,0.328,0.309,0.300,0.164,0.099,north-northwest,11.5,No
2018/01/18,04:30,0.328,0.200,0.329,0.310,0.300,0.164,0.098,north-northwest,10.9,No
2018/01/18,04:40,0.329,0.201,0.330,0.311,0.300,0.163,0.098,north-northwest,12.0,No
2018/01/18,04:50,0.329,0.202,0.329,0.308,0.301,0.162,0.099,north-northwest,11.2,No
2018/01/18,05:00,0.329,0.200,0.330,0.308,0.301,0.163,0.099,north-northwest,9.8,No
2018/01/18,05:10,0.329,0.200,0.328,0.308,0.301,0.163,0.099,north-northwest,11.2,No
2018/01/18,05:20,0.331,0.202,0.328,0.309,0.300,0.163,0.100,north-northwest,10.9,No
2018/01/18,05:30,0.329,0.201,0.330,0.309,0.300,0.164,0.099,north-northwest,11.2,No
2018/01/18,05:40,0.329,0.201,0.329,0.309,0.299,0.163,0.099,north-northwest,10.4,No
2018/01/18,05:50,0.330,0.200,0.329,0.309,0.300,0.164,0.099,north-northwest,10.0,No
2018/01/18,06:00,0.329,0.201,0.327,0.310,0.300,0.163,0.098,north-northwest,10.0,No
2018/01/18,06:10,0.329,0.199,0.329,0.310,0.301,0.163,0.098,north-northwest,9.2,No
2018/01/18,06:20,0.328,0.199,0.330,0.309,0.300,0.163,0.100,north-northwest,8.4,No
2018/01/18,06:30,0.328,0.199,0.328,0.308,0.299,0.163,0.098,northwest,7.5,No
2018/01/18,06:40,0.330,0.199,0.329,0.310,0.300,0.162,0.097,north-northwest,7.3,No
2018/01/18,06:50,0.329,0.200,0.330,0.308,0.300,0.163,0.099,north-northwest,8.7,No
2018/01/18,07:00,0.328,0.201,0.329,0.309,0.299,0.163,0.099,north-northwest,9.7,No
2018/01/18,07:10,0.329,0.201,0.328,0.309,0.300,0.162,0.098,north-northwest,10.1,No
2018/01/18,07:20,0.330,0.200,0.330,0.309,0.301,0.162,0.099,north-northwest,10.6,No
2018/01/18,07:30,0.329,0.199,0.331,0.310,0.299,0.163,0.099,north-northwest,8.7,No
2018/01/18,07:40,0.329,0.200,0.330,0.309,0.299,0.163,0.098,north-northwest,7.4,No
2018/01/18,07:50,0.328,0.199,0.328,0.309,0.300,0.162,0.098,north-northwest,6.7,No
2018/01/18,08:00,0.329,0.201,0.330,0.311,0.300,0.163,0.099,north-northwest,8.2,No
2018/01/18,08:10,0.329,0.200,0.331,0.309,0.300,0.162,0.098,north-northwest,8.1,No
2018/01/18,08:20,0.330,0.200,0.331,0.308,0.299,0.163,0.097,north,9.2,No
2018/01/18,08:30,0.329,0.200,0.330,0.310,0.300,0.163,0.099,north,7.6,No
2018/01/18,08:40,0.330,0.202,0.330,0.310,0.300,0.164,0.098,north,8.1,No
2018/01/18,08:50,0.330,0.200,0.330,0.308,0.300,0.164,0.098,north,5.7,No
2018/01/18,09:00,0.328,0.200,0.331,0.309,0.300,0.162,0.098,north-northwest,6.4,No
2018/01/18,09:10,0.330,0.201,0.329,0.308,0.301,0.163,0.099,north-northwest,7.5,No
2018/01/18,09:20,0.330,0.201,0.331,0.308,0.300,0.163,0.099,north,7.8,No
2018/01/18,09:30,0.330,0.200,0.330,0.310,0.300,0.162,0.098,north,6.3,No
2018/01/18,09:40,0.330,0.200,0.329,0.309,0.300,0.163,0.098,north,5.3,No
2018/01/18,09:50,0.330,0.200,0.329,0.309,0.301,0.163,0.098,north,5.9,No
2018/01/18,10:00,0.331,0.201,0.331,0.308,0.301,0.165,0.099,north,5.6,No
2018/01/18,10:10,0.330,0.201,0.330,0.310,0.300,0.164,0.099,north,4.0,No
2018/01/18,10:20,0.329,0.200,0.330,0.310,0.301,0.163,0.098,northeast,7.4,No
2018/01/18,10:30,0.328,0.200,0.332,0.309,0.299,0.164,0.099,north-northeast,8.1,No
2018/01/18,10:40,0.329,0.200,0.330,0.310,0.298,0.163,0.098,north-northeast,8.1,No
2018/01/18,10:50,0.328,0.201,0.329,0.310,0.301,0.164,0.099,north-northeast,7.0,No
2018/01/18,11:00,0.331,0.201,0.330,0.309,0.300,0.166,0.099,north-northeast,7.4,No
2018/01/18,11:10,0.328,0.199,0.328,0.311,0.301,0.166,0.098,north-northeast,4.1,No
2018/01/18,11:20,0.329,0.201,0.328,0.311,0.300,0.165,0.099,northeast,4.2,No
2018/01/18,11:30,0.329,0.201,0.329,0.310,0.302,0.165,0.098,north-northeast,4.2,No
2018/01/18,11:40,0.329,0.201,0.329,0.309,0.299,0.164,0.099,northeast,4.7,No
2018/01/18,11:50,0.330,0.202,0.330,0.310,0.299,0.165,0.099,north-northeast,4.8,No
2018/01/18,12:00,0.328,0.200,0.329,0.311,0.300,0.165,0.099,north-northeast,4.3,No
2018/01/18,12:10,0.331,0.200,0.329,0.310,0.302,0.163,0.099,north-northeast,4.0,No
2018/01/18,12:20,0.328,0.202,0.331,0.311,0.301,0.164,0.099,north-northeast,5.3,No
2018/01/18,12:30,0.330,0.200,0.328,0.311,0.302,0.165,0.099,north-northeast,4.7,No
2018/01/18,12:40,0.329,0.200,0.330,0.312,0.302,0.164,0.098,north-northeast,3.4,No
2018/01/18,12:50,0.329,0.200,0.328,0.310,0.300,0.165,0.099,north-northeast,3.5,No
2018/01/18,13:00,0.329,0.202,0.329,0.309,0.303,0.165,0.099,northeast,3.3,No
2018/01/18,13:10,0.329,0.201,0.328,0.311,0.300,0.165,0.099,northeast,2.6,No
2018/01/18,13:20,0.329,0.200,0.328,0.310,0.302,0.164,0.099,northeast,2.4,No
2018/01/18,13:30,0.329,0.202,0.330,0.312,0.302,0.166,0.099,north-northeast,3.1,No
2018/01/18,13:40,0.329,0.200,0.328,0.310,0.302,0.165,0.099,north,0.6,No
2018/01/18,13:50,0.328,0.200,0.330,0.311,0.304,0.164,0.098,north-northeast,2.7,No
2018/01/18,14:00,0.331,0.202,0.329,0.310,0.300,0.165,0.099,northeast,3.1,No
2018/01/18,14:10,0.330,0.200,0.330,0.313,0.303,0.165,0.099,northeast,2.9,No
2018/01/18,14:20,0.332,0.202,0.328,0.311,0.300,0.164,0.098,north-northeast,2.8,No
2018/01/18,14:30,0.332,0.201,0.328,0.311,0.302,0.165,0.099,northeast,3.4,No
2018/01/18,14:40,0.329,0.200,0.332,0.312,0.301,0.164,0.099,northeast,1.6,No
2018/01/18,14:50,0.332,0.202,0.330,0.311,0.300,0.165,0.099,northeast,1.4,No
2018/01/18,15:00,0.332,0.200,0.328,0.312,0.302,0.164,0.099,north,0.9,No
2018/01/18,15:10,0.330,0.201,0.330,0.312,0.302,0.164,0.099,north-northeast,1.0,No
2018/01/18,15:20,0.330,0.202,0.331,0.311,0.301,0.164,0.099,-,CALM,No
2018/01/18,15:30,0.330,0.202,0.329,0.314,0.303,0.164,0.099,south-southeast,0.9,No
2018/01/18,15:40,0.330,0.203,0.332,0.310,0.300,0.165,0.099,east-southeast,0.6,No
2018/01/18,15:50,0.331,0.201,0.330,0.311,0.302,0.164,0.099,south-southeast,1.0,No
2018/01/18,16:00,0.331,0.201,0.329,0.314,0.300,0.166,0.099,south-southwest,3.5,No
2018/01/18,16:10,0.330,0.201,0.330,0.311,0.301,0.166,0.099,south-southwest,3.7,No
2018/01/18,16:20,0.331,0.201,0.331,0.312,0.302,0.166,0.098,south,4.2,No
2018/01/18,16:30,0.331,0.200,0.330,0.313,0.301,0.165,0.099,south,3.1,No
2018/01/18,16:40,0.330,0.201,0.330,0.310,0.299,0.166,0.099,south,3.9,No
2018/01/18,16:50,0.330,0.201,0.331,0.312,0.301,0.165,0.098,south,2.6,No
2018/01/18,17:00,0.331,0.201,0.329,0.313,0.300,0.165,0.099,southwest,2.2,No
2018/01/18,17:10,0.330,0.200,0.331,0.312,0.300,0.164,0.099,south-southwest,2.3,No
2018/01/18,17:20,0.329,0.201,0.330,0.311,0.301,0.165,0.100,south-southwest,3.3,No
2018/01/18,17:30,0.331,0.201,0.330,0.313,0.301,0.165,0.099,south-southwest,2.9,No
2018/01/18,17:40,0.331,0.201,0.329,0.312,0.301,0.165,0.099,south-southwest,1.9,No
2018/01/18,17:50,0.331,0.201,0.331,0.311,0.301,0.165,0.099,south-southwest,2.3,No
2018/01/18,18:00,0.331,0.202,0.332,0.312,0.300,0.166,0.099,south-southwest,1.8,No
2018/01/18,18:10,0.331,0.201,0.330,0.311,0.301,0.164,0.099,south-southwest,3.0,No
2018/01/18,18:20,0.330,0.201,0.330,0.311,0.300,0.165,0.098,south,2.7,No
2018/01/18,18:30,0.331,0.201,0.331,0.311,0.301,0.166,0.099,south,3.4,No
2018/01/18,18:40,0.330,0.201,0.330,0.313,0.300,0.165,0.099,south-southwest,4.7,No
2018/01/18,18:50,0.331,0.201,0.330,0.312,0.299,0.165,0.099,south,4.7,No
2018/01/18,19:00,0.331,0.201,0.331,0.311,0.301,0.165,0.099,south,5.5,No
2018/01/18,19:10,0.331,0.202,0.332,0.312,0.302,0.165,0.099,south,5.1,No
2018/01/18,19:20,0.331,0.202,0.329,0.313,0.299,0.165,0.099,south,3.2,No
2018/01/18,19:30,0.331,0.202,0.330,0.313,0.301,0.166,0.100,south-southwest,1.9,No
2018/01/18,19:40,0.330,0.201,0.332,0.312,0.300,0.165,0.099,west-northwest,1.4,No
2018/01/18,19:50,0.332,0.202,0.331,0.311,0.300,0.165,0.099,west-southwest,1.7,No
2018/01/18,20:00,0.330,0.202,0.329,0.312,0.300,0.165,0.099,west,2.9,No
2018/01/18,20:10,0.330,0.203,0.331,0.312,0.300,0.165,0.100,south,2.4,No
2018/01/18,20:20,0.332,0.203,0.331,0.311,0.300,0.166,0.099,southwest,2.3,No
2018/01/18,20:30,0.331,0.202,0.330,0.313,0.300,0.165,0.100,west,1.8,No
2018/01/18,20:40,0.332,0.200,0.331,0.312,0.300,0.165,0.099,northwest,3.2,No
2018/01/18,20:50,0.330,0.202,0.331,0.313,0.300,0.165,0.099,-,CALM,No
2018/01/18,21:00,0.331,0.202,0.332,0.312,0.301,0.165,0.098,southeast,1.5,No
2018/01/18,21:10,0.330,0.201,0.329,0.314,0.301,0.166,0.100,west-southwest,1.8,No
2018/01/18,21:20,0.331,0.200,0.332,0.312,0.300,0.166,0.099,east-southeast,2.3,No
2018/01/18,21:30,0.332,0.202,0.332,0.313,0.299,0.166,0.099,east-southeast,2.1,No
2018/01/18,21:40,0.333,0.202,0.331,0.312,0.302,0.165,0.099,-,CALM,No
2018/01/18,21:50,0.331,0.201,0.331,0.313,0.302,0.166,0.098,west-northwest,1.2,No
2018/01/18,22:00,0.331,0.202,0.332,0.312,0.301,0.165,0.099,west-northwest,2.3,No
2018/01/18,22:10,0.330,0.201,0.331,0.313,0.300,0.166,0.100,northeast,1.3,No
2018/01/18,22:20,0.331,0.202,0.331,0.313,0.303,0.165,0.099,east,1.8,No
2018/01/18,22:30,0.331,0.202,0.330,0.314,0.301,0.166,0.099,south-southeast,1.0,No
2018/01/18,22:40,0.332,0.203,0.332,0.312,0.301,0.166,0.099,-,CALM,No
2018/01/18,22:50,0.331,0.202,0.330,0.313,0.301,0.165,0.099,south,1.6,No
2018/01/18,23:00,0.331,0.201,0.331,0.313,0.300,0.166,0.099,west,1.5,No
2018/01/18,23:10,0.332,0.202,0.332,0.312,0.301,0.165,0.100,north-northwest,1.4,No
2018/01/18,23:20,0.332,0.201,0.333,0.311,0.301,0.166,0.099,northwest,1.6,No
2018/01/18,23:30,0.332,0.202,0.332,0.312,0.300,0.166,0.099,north-northeast,1.0,No
2018/01/18,23:40,0.332,0.202,0.330,0.312,0.300,0.166,0.100,east,1.2,No
2018/01/18,23:50,0.331,0.202,0.331,0.313,0.301,0.165,0.100,north-northwest,2.4,No
